Pecos, TX

8:55 PM CST on December 11, 2017 (GMT -0600)
Pecos Municipal

Weather History for KPEQ - November, 2012

Change the Weather History Date:

Friday, November 16, 2012

  Actual Average Record
Temperature  
Mean Temperature 56 °F -  
Max Temperature 66 °F 67 °F 89 °F (1963)
Min Temperature 46 °F 35 °F 17 °F (1916)
Degree Days  
Heating Degree Days 9    
Growing Degree Days 6 (Base 50)    
Moisture  
Dew Point 33 °F    
Average Humidity 45    
Maximum Humidity 76    
Minimum Humidity 30    
Precipitation  
Precipitation 0.00 in - - ()
Sea Level Pressure  
Sea Level Pressure 30.28 in    
Wind  
Wind Speed 7 mph (NNE)    
Max Wind Speed 13 mph    
Max Gust Speed -    
Visibility 10 miles    
Events      
Averages and records for this station are not official NWS values.
T = Trace of Precipitation, MM = Missing Value Source: NWS Daily Summary

Daily Weather History Graph

Daily Weather History Graph

Search for Another Location

Airport or City:

Trip Planner

Search our weather history database for the weather conditions in past years. The results will help you decide how hot, cold, wet, or windy it might be!

Date:

Astronomy

Nov. 16, 2012 Rise Set
Actual Time 7:22 AM CST 5:54 PM CST
Civil Twilight 6:57 AM CST 6:20 PM CST
Nautical Twilight 6:27 AM CST 6:49 PM CST
Astronomical Twilight 5:58 AM CST 7:18 PM CST
Moon 10:16 AM CST (11/16) 8:59 PM CST (11/16)
Length of Visible Light 11h 23m
Length of Day
10h 31m
Waxing Crescent, 12% of the Moon is Illuminated
Nov 16
Waxing Crescent
Nov 20
First Quarter
Nov 28
Full
Dec 6
Last Quarter
Dec 13
New

Hourly Weather History & Observations

Time (CST) Temp. Windchill Dew Point Humidity Pressure Visibility Wind Dir Wind Speed Gust Speed Precip Events Conditions
12:15 AM 50.2 °F - 21.0 °F 32% 30.26 in 10.0 mi NW 8.1 mph - N/A   Clear
12:35 AM 50.7 °F - 20.8 °F 31% 30.27 in 10.0 mi NW 5.8 mph - N/A   Clear
12:55 AM 49.5 °F - 21.2 °F 33% 30.27 in 10.0 mi WNW 6.9 mph - N/A   Clear
1:15 AM 49.5 °F - 21.6 °F 33% 30.27 in 10.0 mi WNW 6.9 mph - N/A   Clear
1:35 AM 50.9 °F - 20.7 °F 30% 30.27 in 10.0 mi NW 11.5 mph - N/A   Clear
1:55 AM 50.5 °F - 21.2 °F 32% 30.26 in 10.0 mi WNW 8.1 mph - N/A   Clear
2:15 AM 50.0 °F - 20.8 °F 32% 30.26 in 10.0 mi NW 5.8 mph - N/A   Clear
2:35 AM 49.5 °F - 20.5 °F 32% 30.26 in 10.0 mi NW 3.5 mph - N/A   Clear
2:55 AM 48.7 °F - 21.6 °F 34% 30.28 in 10.0 mi West 5.8 mph - N/A   Clear
3:15 AM 48.7 °F - 22.1 °F 35% 30.28 in 10.0 mi NW 6.9 mph - N/A   Clear
3:35 AM 49.1 °F - 22.3 °F 35% 30.28 in 10.0 mi NW 6.9 mph - N/A   Clear
3:55 AM 48.2 °F - 23.0 °F 37% 30.29 in 10.0 mi WNW 6.9 mph - N/A   Clear
4:15 AM 48.2 °F - 23.7 °F 38% 30.29 in 10.0 mi WNW 8.1 mph - N/A   Clear
4:35 AM 48.2 °F - 24.1 °F 39% 30.28 in 10.0 mi NW 6.9 mph - N/A   Clear
4:55 AM 47.8 °F - 24.8 °F 41% 30.29 in 10.0 mi WNW 5.8 mph - N/A   Clear
5:15 AM 47.7 °F - 24.8 °F 41% 30.28 in 10.0 mi NW 6.9 mph - N/A   Clear
5:35 AM 47.7 °F - 25.3 °F 42% 30.29 in 10.0 mi NW 6.9 mph - N/A   Clear
5:55 AM 47.7 °F - 25.9 °F 43% 30.30 in 10.0 mi NW 8.1 mph - N/A   Clear
6:15 AM 47.3 °F - 26.2 °F 44% 30.30 in 10.0 mi NNW 6.9 mph - N/A   Clear
6:35 AM 46.8 °F - 26.6 °F 45% 30.31 in 10.0 mi NW 5.8 mph - N/A   Clear
6:55 AM 46.4 °F 43.5 °F 26.6 °F 46% 30.31 in 10.0 mi NNW 5.8 mph - N/A   Clear
7:15 AM 46.0 °F 43.1 °F 27.0 °F 47% 30.32 in 10.0 mi NW 5.8 mph - N/A   Clear
7:35 AM 46.0 °F 43.1 °F 26.6 °F 47% 30.33 in 10.0 mi WNW 5.8 mph - N/A   Clear
7:55 AM 46.4 °F 42.9 °F 26.8 °F 46% 30.33 in 10.0 mi WNW 6.9 mph - N/A   Clear
8:15 AM 46.9 °F - 26.6 °F 45% 30.34 in 10.0 mi WNW 5.8 mph - N/A   Clear
8:35 AM 47.8 °F - 26.6 °F 44% 30.34 in 10.0 mi NW 6.9 mph - N/A   Clear
8:55 AM 48.7 °F - 27.3 °F 43% 30.35 in 10.0 mi NW 6.9 mph - N/A   Clear
9:35 AM 50.9 °F - 34.3 °F 53% 30.35 in 10.0 mi Calm Calm - N/A   Clear
9:55 AM 50.9 °F - 36.5 °F 58% 30.36 in 10.0 mi NNW 3.5 mph - N/A   Clear
10:15 AM 51.1 °F - 36.5 °F 57% 30.36 in 10.0 mi NNW 4.6 mph - N/A   Clear
10:35 AM 52.9 °F - 36.3 °F 53% 30.36 in 10.0 mi NNW 4.6 mph - N/A   Clear
10:55 AM 54.5 °F - 35.2 °F 48% 30.35 in 10.0 mi North 4.6 mph - N/A   Clear
11:15 AM 55.6 °F - 35.2 °F 46% 30.35 in 10.0 mi Calm Calm - N/A   Clear
11:35 AM 56.7 °F - 35.2 °F 45% 30.34 in 10.0 mi NNW 3.5 mph - N/A   Clear
11:55 AM 57.9 °F - 37.0 °F 46% 30.33 in 10.0 mi North 3.5 mph - N/A   Clear
12:15 PM 59.4 °F - 37.0 °F 43% 30.32 in 10.0 mi Calm Calm - N/A   Clear
12:35 PM 60.1 °F - 36.3 °F 41% 30.30 in 10.0 mi Calm Calm - N/A   Clear
12:55 PM 62.1 °F - 36.3 °F 38% 30.29 in 10.0 mi NE 5.8 mph - N/A   Clear
1:15 PM 63.5 °F - 35.2 °F 35% 30.27 in 10.0 mi East 3.5 mph - N/A   Clear
1:35 PM 63.7 °F - 35.1 °F 34% 30.26 in 10.0 mi East 3.5 mph - N/A   Clear
1:55 PM 64.4 °F - 35.6 °F 34% 30.26 in 10.0 mi East 4.6 mph - N/A   Clear
2:15 PM 65.3 °F - 36.5 °F 34% 30.25 in 10.0 mi SSE 4.6 mph - N/A   Clear
2:35 PM 64.9 °F - 36.3 °F 35% 30.24 in 10.0 mi East 6.9 mph - N/A   Clear
2:55 PM 65.1 °F - 36.5 °F 35% 30.23 in 10.0 mi ESE 6.9 mph - N/A   Clear
3:15 PM 66.2 °F - 37.6 °F 35% 30.23 in 10.0 mi East 5.8 mph - N/A   Clear
3:35 PM 64.8 °F - 37.6 °F 37% 30.23 in 10.0 mi East 9.2 mph - N/A   Clear
3:55 PM 66.6 °F - 37.8 °F 35% 30.23 in 10.0 mi East 9.2 mph - N/A   Clear
4:35 PM 64.8 °F - 37.4 °F 36% 30.23 in 10.0 mi East 10.4 mph - N/A   Clear
4:55 PM 64.0 °F - 36.5 °F 36% 30.23 in 10.0 mi East 10.4 mph - N/A   Clear
5:15 PM 63.7 °F - 34.3 °F 34% 30.22 in 10.0 mi East 11.5 mph - N/A   Clear
5:55 PM 62.6 °F - 33.6 °F 34% 30.22 in 10.0 mi East 6.9 mph - N/A   Clear
6:15 PM 61.7 °F - 38.1 °F 42% 30.23 in 10.0 mi East 6.9 mph - N/A   Clear
6:35 PM 61.7 °F - 41.9 °F 48% 30.23 in 10.0 mi East 9.2 mph - N/A   Clear
6:55 PM 61.2 °F - 44.2 °F 54% 30.24 in 10.0 mi East 12.7 mph - N/A   Clear
7:15 PM 60.3 °F - 44.1 °F 55% 30.25 in 10.0 mi East 12.7 mph - N/A   Clear
7:55 PM 58.3 °F - 44.8 °F 61% 30.26 in 10.0 mi East 10.4 mph - N/A   Clear
8:35 PM 56.3 °F - 44.6 °F 65% 30.26 in 10.0 mi East 10.4 mph - N/A   Clear
9:15 PM 55.6 °F - 44.6 °F 67% 30.26 in 10.0 mi ESE 6.9 mph - N/A   Clear
9:55 PM 54.1 °F - 44.6 °F 70% 30.27 in 10.0 mi ESE 5.8 mph - N/A   Clear
10:15 PM 53.6 °F - 44.2 °F 71% 30.27 in 10.0 mi East 6.9 mph - N/A   Clear
10:35 PM 52.0 °F - 43.7 °F 73% 30.26 in 10.0 mi East 6.9 mph - N/A   Clear
10:55 PM 50.9 °F - 43.3 °F 75% 30.26 in 10.0 mi ENE 6.9 mph - N/A   Clear
11:15 PM 51.4 °F - 44.2 °F 76% 30.26 in 10.0 mi East 6.9 mph - N/A   Clear
11:35 PM 52.0 °F - 44.8 °F 76% 30.25 in 10.0 mi ENE 5.8 mph - N/A   Clear
11:55 PM 52.3 °F - 45.1 °F 76% 30.24 in 10.0 mi East 8.1 mph - N/A   Clear